Terminal Aerodrome Forecast
Issued by NWS

Current Version | Previous Version | Text Only | Print | Product List | Glossary On
Versions: 1 2 3 4 5 6 7 8 9 10 11 12 13 14 15 16 17 18 19 20 21 22 23 24 25 26 27 28 29 30 31 32 33
402
FTUS46 KOTX 102328
TAFCOE
TAF
KCOE 102328Z 1100/1124 VRB04KT P6SM SCT070 BKN110
     FM110900 05005KT P6SM SCT006 OVC015
     FM111500 05005KT 3SM BR SCT005 OVC012
     FM111800 02006KT P6SM SCT015 OVC025
      AMD LTD TO CLD AND VIS=

USA.gov is the U.S. government's official web portal to all federal, state and local government web resources and services.